Sioux Falls, SD

2:48 AM CDT on October 24, 2017 (GMT -0500)
Foss

Weather History for KFSD - March, 2013

Change the Weather History Date:

Monday, March 25, 2013

  Actual Average Record
Temperature  
Mean Temperature 22 °F 37 °F  
Max Temperature 28 °F 48 °F 82 °F (1910)
Min Temperature 16 °F 26 °F -4 °F (1894)
Degree Days  
Heating Degree Days 43 28  
Month to date heating degree days 992 835  
Since 1 July heating degree days 6611 6685  
Cooling Degree Days 0 0  
Month to date cooling degree days 0 0  
Year to date cooling degree days 0 0  
Moisture  
Dew Point 17 °F    
Average Humidity 78    
Maximum Humidity 93    
Minimum Humidity 51    
Precipitation  
Precipitation 0.02 in 0.07 in 2.39 in (1995)
Month to date precipitation 0.88 1.26  
Year to date precipitation 2.23 2.42  
Snow  
Snow 0.30 in 0.20 in 3.00 in (1970)
Month to date snowfall 1.5 7.0  
Since 1 July snowfall 27.0 38.5  
Snow Depth 1.00 in    
Sea Level Pressure  
Sea Level Pressure 30.25 in    
Wind  
Wind Speed 14 mph (NNW)    
Max Wind Speed 23 mph    
Max Gust Speed 28 mph    
Visibility 7 miles    
Events Snow    
T = Trace of Precipitation, MM = Missing Value Source: NWS Daily Summary

Daily Weather History Graph

Daily Weather History Graph

Search for Another Location

Airport or City:

Trip Planner

Search our weather history database for the weather conditions in past years. The results will help you decide how hot, cold, wet, or windy it might be!

Date:

Astronomy

Mar. 25, 2013 Rise Set
Actual Time 7:20 AM CDT 7:45 PM CDT
Civil Twilight 6:51 AM CDT 8:14 PM CDT
Nautical Twilight 6:18 AM CDT 8:48 PM CDT
Astronomical Twilight 5:43 AM CDT 9:23 PM CDT
Moon 6:17 PM CDT (3/25) 6:07 AM CDT (3/25)
Length of Visible Light 13h 22m
Length of Day
12h 25m
Waxing Gibbous, 96% of the Moon is Illuminated
Mar 25
Waxing Gibbous
Mar 27
Full
Apr 2
Last Quarter
Apr 10
New
Apr 18
First Quarter

Hourly Weather History & Observations

Time (CDT) Temp. Windchill Dew Point Humidity Pressure Visibility Wind Dir Wind Speed Gust Speed Precip Events Conditions
12:56 AM 23.0 °F 9.2 °F 18.0 °F 81% 30.19 in 10.0 mi NNW 17.3 mph - N/A   Overcast
1:56 AM 21.9 °F 8.7 °F 18.0 °F 85% 30.19 in 4.0 mi NNW 15.0 mph 23.0 mph 0.00 in   Overcast
2:20 AM 21.2 °F 6.4 °F 19.4 °F 93% 30.12 in 2.0 mi NNW 18.4 mph 23.0 mph 0.00 in Snow Light Snow
2:56 AM 21.9 °F 8.7 °F 19.0 °F 89% 30.19 in 3.0 mi NNW 15.0 mph - 0.00 in Snow Light Snow
3:08 AM 21.2 °F 7.8 °F 19.4 °F 93% 30.12 in 2.5 mi NNW 15.0 mph 24.2 mph 0.00 in Snow Light Snow
3:41 AM 21.2 °F 6.8 °F 19.4 °F 93% 30.12 in 2.5 mi NNW 17.3 mph - 0.00 in Snow Light Snow
3:56 AM 21.9 °F 8.7 °F 19.0 °F 89% 30.18 in 2.5 mi NNW 15.0 mph 23.0 mph 0.00 in Snow Light Snow
4:27 AM 21.2 °F 7.8 °F 19.4 °F 93% 30.12 in 3.0 mi NNW 15.0 mph - 0.00 in Snow Light Snow
4:38 AM 21.2 °F 8.3 °F 19.4 °F 93% 30.12 in 3.0 mi NNW 13.8 mph 26.5 mph 0.00 in Snow Light Snow
4:45 AM 21.2 °F 7.8 °F 19.4 °F 93% 30.12 in 2.0 mi NNW 15.0 mph - 0.00 in Snow Light Snow
4:56 AM 21.9 °F 7.3 °F 19.0 °F 89% 30.19 in 2.0 mi NNW 18.4 mph - 0.00 in Snow Light Snow
4:58 AM 21.2 °F 6.8 °F 19.4 °F 93% 30.12 in 2.5 mi NNW 17.3 mph - 0.00 in Snow Light Snow
5:35 AM 21.2 °F 6.8 °F 17.6 °F 86% 30.13 in 4.0 mi NNW 17.3 mph - 0.00 in Snow Light Snow
5:56 AM 21.9 °F 7.3 °F 18.0 °F 85% 30.21 in 7.0 mi NNW 18.4 mph 25.3 mph 0.00 in Snow Light Snow
6:23 AM 21.2 °F 6.8 °F 17.6 °F 86% 30.15 in 10.0 mi North 17.3 mph - 0.00 in   Overcast
6:56 AM 21.9 °F 8.2 °F 18.0 °F 85% 30.23 in 3.0 mi NNW 16.1 mph 25.3 mph 0.00 in Snow Light Snow
7:56 AM 21.9 °F 7.3 °F 18.0 °F 85% 30.26 in 6.0 mi NNW 18.4 mph - 0.00 in Snow Light Snow
8:56 AM 23.0 °F 9.2 °F 18.0 °F 81% 30.27 in 10.0 mi NNW 17.3 mph - 0.00 in   Overcast
9:56 AM 24.1 °F 10.6 °F 18.0 °F 77% 30.29 in 10.0 mi NNW 17.3 mph - N/A   Overcast
10:56 AM 26.1 °F 13.6 °F 18.0 °F 71% 30.30 in 10.0 mi NNW 16.1 mph - N/A   Overcast
11:56 AM 28.0 °F 16.1 °F 17.1 °F 63% 30.31 in 10.0 mi North 16.1 mph 23.0 mph N/A   Overcast
12:48 PM 26.6 °F 13.1 °F 17.6 °F 69% 30.24 in 10.0 mi North 19.6 mph 25.3 mph N/A   Overcast
12:56 PM 28.0 °F 14.9 °F 17.1 °F 63% 30.31 in 10.0 mi North 19.6 mph 25.3 mph N/A   Overcast
1:25 PM 26.6 °F 13.4 °F 15.8 °F 64% 30.24 in 10.0 mi North 18.4 mph - N/A   Overcast
1:56 PM 27.0 °F 14.7 °F 17.1 °F 66% 30.31 in 9.0 mi North 16.1 mph 26.5 mph 0.00 in Snow Light Snow
2:56 PM 27.0 °F 15.2 °F 17.1 °F 66% 30.31 in 9.0 mi North 15.0 mph - 0.00 in Snow Light Snow
3:56 PM 28.0 °F 17.0 °F 18.0 °F 66% 30.31 in 9.0 mi NNW 13.8 mph - 0.00 in Snow Light Snow
4:56 PM 28.0 °F 16.5 °F 18.0 °F 66% 30.32 in 9.0 mi North 15.0 mph - 0.00 in Snow Light Snow
5:56 PM 27.0 °F 15.2 °F 18.0 °F 69% 30.33 in 9.0 mi NNW 15.0 mph - 0.00 in Snow Light Snow
6:56 PM 26.1 °F 14.0 °F 17.1 °F 69% 30.35 in 9.0 mi North 15.0 mph - 0.00 in Snow Light Snow
7:44 PM 24.8 °F 13.4 °F 17.6 °F 74% 30.29 in 7.0 mi NNW 12.7 mph - 0.00 in Snow Light Snow
7:51 PM 24.8 °F 13.4 °F 17.6 °F 74% 30.29 in 7.0 mi NNW 12.7 mph - 0.00 in Snow Light Snow
7:56 PM 25.0 °F 14.2 °F 18.0 °F 75% 30.37 in 9.0 mi NNW 11.5 mph - 0.00 in Snow Light Snow
8:56 PM 23.0 °F 12.4 °F 16.0 °F 74% 30.37 in 10.0 mi NNW 10.4 mph - 0.00 in   Mostly Cloudy
9:56 PM 21.0 °F 12.4 °F 14.0 °F 74% 30.38 in 10.0 mi NNW 6.9 mph - 0.00 in   Mostly Cloudy
10:56 PM 17.1 °F 7.6 °F 12.0 °F 81% 30.39 in 10.0 mi NNW 6.9 mph - N/A   Partly Cloudy
11:29 PM 17.6 °F 8.2 °F 10.4 °F 73% 30.31 in 10.0 mi NNW 6.9 mph - 0.00 in Snow Light Snow
11:56 PM 21.9 °F 11.0 °F 14.0 °F 72% 30.38 in 9.0 mi NNW 10.4 mph - 0.00 in Snow Light Snow